Temp
-12 -12 -12 -12 -12 -12 -12 -11 -10 -10 -10 -9 -9 -9 -9 -8 -7 -7 -6 -6 -6 -6 -5 -5 -5 -5 -5 -5 -6 -6 -6 -5 -5 -5 -5 -5 -5 -5 -5 -6 -6 -6 -6 -6 -6
-12 -12 -12 -12 -13 -12 -12 -12 -11 -11 -10 -10 -10 -10 -9 -9 -8 -7 -7 -7 -6 -6 -6 -6 -5 -5 -5 -5 -5 -6 -6 -6 -6 -5 -6 -6 -6 -5 -6 -6 -6 -6 -6 -6 -6
-13 -12 -12 -12 -12 -13 -12 -12 -12 -12 -11 -10 -10 -9 -10 -10 -9 -8 -8 -7 -7 -7 -6 -6 -6 -5 -5 -5 -5 -5 -6 -6 -6 -6 -5 -6 -6 -6 -6 -6 -6 -6 -6 -6 -6
-14 -13 -13 -12 -12 -13 -13 -13 -12 -12 -12 -11 -11 -10 -10 -10 -9 -9 -9 -8 -8 -7 -7 -6 -6 -6 -6 -6 -5 -5 -6 -6 -5 -6 -5 -5 -6 -6 -6 -6 -6 -6 -6 -6 -5
-14 -14 -14 -13 -12 -13 -13 -13 -13 -12 -13 -12 -12 -11 -11 -10 -10 -10 -9 -9 -9 -8 -7 -7 -7 -6 -6 -6 -6 -5 -5 -6 -6 -6 -5 -5 -6 -5 -6 -5 -5 -5 -6 -6 -6
-15 -14 -15 -14 -14 -13 -13 -13 -14 -13 -13 -13 -13 -12 -12 -10 -11 -10 -10 -10 -9 -9 -8 -8 -7 -7 -6 -6 -6 -6 -5 -6 -5 -6 -6 -6 -6 -5 -7 -5 -5 -6 -5 -5 -6
-16 -15 -15 -15 -15 -14 -13 -14 -14 -14 -13 -13 -13 -13 -12 -12 -11 -11 -10 -10 -10 -10 -9 -8 -8 -7 -7 -7 -6 -6 -6 -6 -6 -6 -6 -6 -6 -6 -6 -6 -5 -6 -6 -6 -6
-17 -16 -15 -16 -16 -15 -14 -14 -14 -14 -14 -14 -14 -13 -12 -13 -12 -11 -11 -11 -10 -10 -10 -9 -8 -8 -8 -7 -7 -7 -7 -6 -6 -6 -6 -6 -6 -6 -6 -6 -6 -6 -6 -6 -6
-17 -17 -16 -16 -16 -16 -15 -15 -15 -14 -14 -14 -14 -14 -12 -12 -12 -12 -12 -11 -11 -10 -10 -10 -9 -9 -8 -8 -8 -8 -7 -7 -7 -7 -6 -6 -6 -6 -6 -6 -6 -6 -6 -6 -6
-20 -18 -18 -17 -17 -17 -16 -16 -16 -15 -14 -14 -15 -14 -13 -13 -13 -13 -12 -12 -12 -11 -11 -10 -10 -9 -9 -8 -8 -9 -9 -8 -7 -6 -7 -6 -6 -6 -6 -6 -6 -6 -6 -6 -6
-20 -20 -19 -18 -18 -17 -17 -17 -17 -17 -15 -14 -14 -14 -13 -13 -14 -14 -13 -13 -12 -11 -11 -11 -10 -10 -9 -9 -10 -9 -8 -8 -8 -8 -7 -7 -6 -7 -7 -6 -7 -7 -6 -7 -7
-20 -19 -19 -19 -18 -18 -17 -17 -17 -17 -15 -14 -14 -14 -14 -14 -14 -14 -13 -13 -12 -12 -12 -11 -10 -10 -11 -10 -10 -9 -9 -9 -9 -9 -7 -7 -7 -7 -7 -7 -7 -7 -7 -7 -7
-19 -19 -19 -19 -19 -18 -18 -17 -17 -17 -16 -14 -14 -14 -14 -15 -15 -14 -14 -13 -13 -13 -12 -12 -11 -12 -11 -11 -10 -10 -10 -10 -9 -9 -8 -8 -7 -8 -8 -8 -8 -8 -8 -8 -8
-20 -19 -19 -19 -19 -19 -18 -18 -17 -15 -17 -14 -15 -14 -15 -15 -14 -14 -14 -14 -13 -13 -13 -12 -12 -12 -11 -11 -11 -11 -11 -10 -10 -10 -9 -8 -7 -8 -8 -8 -8 -8 -8 -8 -8
-21 -20 -19 -19 -19 -19 -18 -18 -18 -17 -15 -15 -14 -15 -15 -14 -14 -14 -14 -14 -13 -13 -14 -12 -12 -11 -11 -11 -12 -11 -11 -10 -10 -10 -9 -9 -8 -7 -8 -9 -9 -9 -8 -8 -8
-21 -21 -20 -19 -19 -19 -18 -19 -18 -18 -17 -16 -15 -15 -15 -14 -15 -15 -15 -14 -14 -14 -14 -14 -13 -13 -12 -13 -12 -12 -11 -11 -11 -10 -9 -9 -9 -8 -8 -9 -9 -9 -9 -8 -8
-22 -22 -21 -20 -19 -19 -19 -19 -20 -20 -17 -16 -14 -15 -15 -14 -14 -14 -15 -14 -14 -14 -13 -14 -13 -13 -13 -13 -12 -12 -12 -12 -11 -10 -9 -11 -9 -9 -9 -10 -10 -10 -9 -9 -9
-24 -23 -22 -22 -20 -20 -20 -19 -20 -19 -18 -17 -15 -15 -15 -15 -15 -15 -15 -14 -14 -13 -14 -14 -13 -12 -12 -13 -13 -13 -13 -12 -12 -12 -11 -10 -8 -9 -9 -10 -10 -10 -10 -10 -10
-24 -24 -23 -24 -23 -22 -21 -20 -20 -19 -17 -18 -17 -14 -15 -16 -16 -16 -15 -14 -14 -14 -14 -13 -13 -13 -13 -14 -14 -13 -12 -13 -13 -12 -12 -11 -9 -9 -10 -11 -10 -10 -11 -11 -11
-26 -25 -25 -25 -24 -24 -22 -20 -19 -19 -18 -17 -17 -16 -15 -16 -15 -15 -15 -14 -14 -14 -15 -15 -14 -14 -14 -15 -14 -14 -13 -13 -12 -11 -11 -10 -10 -10 -10 -10 -11 -11 -11 -11 -11
-28 -28 -28 -27 -26 -26 -22 -20 -19 -18 -19 -18 -17 -17 -16 -16 -15 -15 -14 -14 -14 -14 -15 -16 -15 -15 -14 -14 -14 -14 -13 -12 -13 -12 -12 -12 -11 -11 -9 -11 -12 -11 -11 -11 -12
-29 -29 -29 -27 -27 -26 -23 -20 -19 -19 -19 -18 -18 -17 -16 -16 -16 -15 -15 -15 -15 -15 -14 -15 -15 -15 -14 -14 -14 -14 -13 -14 -13 -13 -13 -12 -11 -12 -12 -12 -12 -12 -12 -12 -12
-30 -29 -29 -28 -27 -27 -25 -22 -20 -19 -20 -19 -18 -17 -16 -17 -16 -16 -15 -16 -15 -15 -15 -15 -15 -15 -16 -13 -13 -14 -14 -14 -14 -14 -12 -12 -11 -11 -13 -13 -14 -13 -12 -12 -13
-30 -30 -29 -28 -28 -27 -26 -23 -21 -19 -19 -20 -18 -18 -17 -17 -16 -16 -15 -15 -15 -15 -16 -16 -15 -14 -13 -13 -14 -14 -14 -14 -14 -13 -13 -11 -12 -13 -12 -12 -14 -13 -13 -13 -13
-30 -30 -29 -29 -28 -27 -26 -26 -23 -20 -19 -19 -19 -18 -17 -16 -16 -15 -15 -15 -15 -16 -16 -16 -15 -15 -15 -16 -14 -15 -14 -14 -13 -13 -12 -12 -12 -13 -13 -13 -14 -14 -13 -13 -14
-30 -30 -30 -29 -28 -28 -27 -26 -23 -21 -19 -20 -19 -17 -17 -16 -15 -15 -15 -15 -15 -15 -15 -15 -15 -16 -16 -16 -15 -15 -14 -14 -13 -13 -13 -13 -12 -13 -14 -14 -13 -13 -13 -14 -15
-30 -30 -30 -29 -29 -28 -27 -26 -25 -22 -19 -20 -19 -18 -18 -17 -17 -16 -15 -16 -15 -15 -15 -16 -16 -16 -15 -16 -16 -14 -13 -13 -14 -13 -13 -12 -13 -14 -13 -13 -14 -14 -13 -14 -15
Height
5766 5766 5768 5770 5773 5776 5779 5783 5786 5789 5793 5797 5800 5804 5808 5811 5816 5821 5824 5830 5832 5834 5836 5838 5840 5842 5844 5846 5847 5848 5850 5849 5850 5850 5851 5851 5851 5851 5852 5852 5853 5854 5854 5855 5855
5756 5757 5758 5760 5762 5766 5770 5773 5775 5779 5784 5787 5791 5795 5799 5803 5808 5812 5817 5822 5826 5828 5831 5833 5836 5838 5840 5842 5843 5845 5846 5846 5848 5848 5849 5849 5849 5849 5850 5850 5851 5851 5852 5852 5853
5743 5744 5747 5749 5751 5755 5758 5762 5767 5769 5773 5778 5782 5786 5791 5794 5799 5803 5808 5814 5818 5822 5824 5827 5830 5832 5835 5837 5839 5841 5843 5844 5845 5846 5847 5847 5848 5848 5848 5848 5849 5849 5850 5850 5850
5729 5731 5733 5736 5739 5743 5747 5750 5755 5760 5763 5767 5772 5777 5781 5785 5790 5797 5799 5805 5810 5814 5817 5820 5823 5826 5828 5832 5834 5836 5837 5840 5841 5843 5843 5844 5845 5846 5846 5845 5847 5846 5847 5847 5848
5715 5717 5719 5722 5726 5729 5734 5739 5744 5749 5753 5757 5761 5766 5771 5776 5783 5785 5790 5796 5801 5806 5809 5812 5816 5819 5822 5824 5828 5830 5832 5835 5837 5839 5839 5841 5842 5843 5843 5842 5843 5844 5844 5844 5844
5699 5702 5704 5707 5711 5715 5721 5728 5733 5738 5742 5747 5751 5755 5759 5768 5771 5774 5782 5786 5792 5797 5801 5803 5808 5811 5815 5817 5821 5823 5827 5829 5831 5833 5835 5837 5837 5840 5836 5839 5840 5840 5839 5840 5841
5681 5685 5688 5691 5695 5700 5706 5713 5720 5726 5731 5735 5739 5742 5747 5761 5762 5765 5773 5778 5782 5787 5792 5794 5798 5803 5807 5810 5813 5818 5820 5822 5825 5826 5829 5831 5834 5834 5830 5835 5834 5836 5836 5836 5836
5664 5667 5671 5674 5680 5685 5691 5699 5707 5713 5718 5722 5728 5730 5736 5748 5751 5757 5761 5767 5773 5777 5782 5786 5789 5794 5799 5803 5806 5809 5812 5815 5817 5820 5821 5823 5828 5825 5827 5828 5831 5831 5831 5832 5831
5642 5647 5652 5656 5663 5671 5677 5685 5693 5700 5705 5709 5714 5718 5728 5738 5741 5747 5752 5757 5761 5767 5772 5776 5780 5784 5790 5795 5797 5800 5805 5806 5808 5813 5813 5816 5820 5819 5821 5822 5825 5826 5826 5826 5826
5619 5625 5631 5638 5645 5655 5664 5671 5679 5685 5692 5696 5699 5707 5719 5732 5731 5736 5742 5747 5752 5757 5761 5765 5770 5776 5782 5784 5791 5793 5797 5798 5801 5802 5804 5808 5813 5812 5813 5817 5818 5819 5820 5820 5822
5599 5604 5610 5619 5627 5639 5651 5658 5666 5670 5671 5687 5694 5702 5707 5714 5721 5725 5732 5737 5742 5746 5751 5757 5761 5767 5777 5780 5782 5782 5786 5790 5793 5790 5798 5799 5802 5806 5807 5809 5812 5812 5814 5814 5814
5583 5587 5592 5601 5610 5621 5634 5640 5652 5654 5662 5673 5679 5688 5690 5701 5710 5713 5720 5726 5732 5738 5744 5746 5751 5761 5765 5767 5771 5774 5779 5782 5785 5784 5787 5791 5792 5800 5800 5801 5803 5805 5805 5804 5806
5568 5572 5577 5584 5593 5608 5619 5629 5638 5644 5647 5655 5664 5676 5683 5689 5698 5703 5710 5718 5723 5728 5733 5736 5750 5751 5752 5757 5762 5766 5770 5775 5774 5773 5776 5781 5783 5790 5792 5797 5796 5795 5794 5795 5797
5553 5556 5560 5569 5585 5590 5605 5615 5627 5632 5632 5638 5650 5661 5668 5676 5683 5694 5701 5708 5712 5719 5724 5729 5738 5740 5742 5748 5752 5756 5761 5764 5765 5767 5768 5769 5769 5779 5786 5788 5787 5784 5784 5786 5787
5540 5543 5548 5557 5566 5576 5589 5599 5611 5621 5606 5625 5639 5652 5660 5668 5683 5682 5690 5692 5701 5710 5715 5722 5729 5735 5739 5742 5745 5750 5751 5753 5756 5757 5760 5765 5759 5770 5774 5780 5777 5776 5775 5774 5775
5526 5529 5533 5540 5550 5562 5572 5585 5596 5602 5594 5610 5622 5637 5646 5658 5666 5670 5678 5683 5693 5698 5705 5711 5716 5719 5728 5732 5736 5738 5742 5743 5747 5750 5750 5754 5756 5758 5758 5768 5768 5766 5765 5764 5764
5512 5516 5520 5526 5539 5546 5555 5569 5579 5576 5591 5601 5617 5629 5643 5650 5654 5660 5667 5671 5679 5687 5694 5701 5704 5715 5720 5725 5727 5729 5735 5738 5740 5739 5742 5746 5746 5749 5749 5754 5757 5755 5756 5756 5755
5498 5502 5507 5513 5519 5527 5538 5551 5552 5563 5579 5596 5607 5618 5625 5637 5640 5650 5658 5664 5674 5684 5689 5695 5697 5705 5712 5716 5723 5725 5729 5730 5729 5733 5735 5732 5733 5739 5742 5745 5745 5745 5746 5745 5746
5483 5486 5493 5497 5503 5511 5519 5523 5534 5559 5570 5587 5596 5603 5616 5621 5634 5638 5649 5661 5669 5674 5680 5685 5690 5696 5702 5708 5711 5716 5717 5725 5722 5722 5721 5725 5726 5731 5733 5736 5734 5734 5735 5736 5736
5468 5470 5478 5483 5490 5495 5500 5513 5531 5554 5568 5575 5579 5596 5606 5615 5622 5628 5640 5654 5657 5664 5672 5677 5680 5685 5692 5698 5701 5703 5709 5710 5711 5713 5714 5717 5719 5721 5724 5723 5726 5727 5727 5726 5725
5457 5460 5469 5473 5481 5483 5488 5510 5530 5547 5558 5562 5576 5583 5596 5605 5615 5624 5634 5645 5650 5655 5661 5669 5672 5675 5681 5688 5693 5697 5697 5702 5705 5706 5706 5710 5714 5713 5711 5713 5718 5717 5717 5717 5716
5452 5455 5462 5467 5470 5474 5483 5505 5520 5535 5544 5551 5561 5574 5587 5599 5606 5615 5627 5637 5642 5648 5653 5662 5662 5667 5676 5680 5685 5686 5688 5689 5691 5696 5700 5702 5704 5703 5700 5702 5709 5707 5707 5707 5707
5446 5451 5453 5456 5464 5469 5478 5487 5499 5511 5524 5542 5553 5566 5580 5590 5598 5607 5619 5627 5632 5638 5646 5651 5650 5659 5662 5667 5671 5674 5679 5683 5688 5690 5692 5689 5695 5696 5698 5694 5697 5699 5699 5698 5698
5442 5445 5447 5450 5455 5463 5468 5475 5485 5501 5518 5530 5543 5556 5566 5578 5589 5598 5606 5614 5624 5632 5636 5637 5644 5651 5656 5663 5666 5670 5673 5677 5678 5678 5684 5684 5687 5691 5685 5688 5689 5686 5688 5689 5691
5436 5439 5440 5443 5448 5450 5455 5462 5473 5484 5500 5518 5532 5547 5560 5573 5582 5590 5596 5607 5615 5621 5625 5630 5635 5641 5647 5651 5653 5660 5664 5666 5668 5673 5671 5681 5680 5682 5679 5680 5678 5678 5679 5680 5681
5429 5431 5433 5436 5439 5441 5445 5455 5461 5475 5485 5503 5521 5538 5552 5564 5577 5589 5592 5599 5606 5612 5616 5623 5629 5633 5639 5645 5644 5651 5655 5657 5658 5662 5668 5669 5673 5672 5671 5667 5669 5670 5670 5671 5672
5422 5423 5423 5429 5431 5434 5440 5446 5453 5463 5476 5497 5517 5530 5539 5556 5562 5570 5577 5587 5595 5604 5612 5619 5624 5629 5634 5638 5639 5641 5645 5646 5654 5657 5660 5660 5664 5660 5661 5660 5661 5661 5662 5662 5664
Wind_Speed
42 46 50 49 48 49 48 52 53 53 51 48 45 43 47 47 45 43 40 36 34 33 30 28 25 22 21 19 18 17 16 16 15 13 13 12 11 10 9 9 8 8 8 7 7
42 45 51 52 51 52 51 50 52 54 54 52 48 47 44 46 46 47 44 40 38 36 35 33 30 27 25 24 22 20 19 20 18 17 15 14 13 12 11 10 10 10 10 10 11
45 45 49 56 54 53 55 54 53 53 54 54 51 50 46 45 47 48 46 42 43 40 38 37 35 33 29 28 26 24 23 23 23 21 19 18 16 15 14 15 13 14 13 13 13
46 50 50 55 59 56 56 58 57 54 51 52 53 51 49 47 48 45 46 44 44 44 43 40 38 37 35 32 31 29 28 25 26 25 24 23 21 20 18 20 17 18 17 18 17
51 52 55 56 60 60 58 59 59 60 54 52 52 52 52 52 45 49 45 46 45 43 46 45 42 40 38 37 35 34 33 30 29 29 29 27 25 23 21 25 22 21 21 21 20
57 57 59 59 60 62 62 59 60 61 60 56 53 53 51 52 50 51 47 44 45 43 44 47 46 44 42 41 39 39 36 35 34 33 31 30 29 24 29 27 25 23 25 24 24
59 60 63 63 63 63 64 61 59 61 63 59 57 55 53 44 49 52 49 46 43 44 44 44 47 48 47 44 42 41 40 38 37 38 36 34 32 31 34 28 29 27 25 27 27
64 62 63 68 63 64 64 63 61 61 59 64 58 60 56 47 49 50 50 48 47 44 45 45 45 48 48 48 44 42 43 42 41 39 40 39 34 38 36 34 32 30 29 29 29
67 66 64 69 68 63 63 64 60 61 60 59 62 62 58 50 50 48 48 47 48 48 47 46 45 46 47 48 49 46 42 42 45 42 43 42 38 40 39 37 34 32 31 31 32
57 64 67 69 69 65 61 61 59 58 63 58 61 64 60 52 50 49 49 48 46 48 47 49 49 45 47 48 47 44 44 46 44 48 47 45 40 41 40 39 37 36 35 35 35
50 54 65 69 67 65 60 58 60 56 65 63 54 54 56 55 52 51 48 48 48 49 50 47 49 52 45 43 45 48 48 49 49 52 48 47 47 44 43 42 39 40 39 40 39
48 50 55 67 68 65 60 61 61 62 65 59 64 57 58 53 51 52 51 50 49 49 45 50 50 44 44 48 49 50 49 47 47 53 53 51 50 44 46 45 43 42 43 44 46
45 49 54 63 66 65 61 60 59 62 63 57 62 54 55 55 52 53 53 48 48 47 48 50 41 40 46 50 50 50 49 48 50 53 53 51 52 48 48 45 47 48 50 49 48
41 45 51 57 58 64 63 61 60 49 69 76 60 48 48 47 55 54 52 50 50 49 49 48 43 46 46 44 48 49 47 48 51 51 54 56 59 51 45 43 46 52 51 50 49
35 41 50 53 59 61 65 65 64 65 64 75 60 63 57 54 47 55 55 55 52 47 48 47 44 45 42 42 42 43 47 51 50 51 51 51 58 50 48 39 42 47 50 52 49
34 39 47 51 57 60 65 66 68 71 70 71 68 51 59 52 53 53 54 56 52 49 49 47 46 48 46 44 42 43 43 45 46 47 54 51 51 52 52 40 41 46 49 51 51
37 37 45 50 55 59 66 68 69 76 71 58 74 59 59 51 52 53 54 58 56 53 52 49 50 43 42 42 46 47 43 42 43 46 46 43 46 45 44 37 35 39 39 39 39
39 37 42 48 54 60 68 72 77 77 81 67 64 72 56 59 56 49 49 52 51 47 49 46 49 45 43 42 39 40 39 42 44 43 42 48 49 44 41 36 38 37 37 38 38
37 39 41 44 50 59 70 77 82 75 80 69 66 67 55 49 57 57 55 46 46 46 47 48 48 47 42 39 40 40 43 40 43 45 47 48 48 44 41 35 38 36 37 38 37
33 37 39 42 47 54 69 77 78 71 56 71 74 70 63 49 53 57 54 49 48 46 46 47 47 46 43 40 41 42 42 43 46 47 46 48 46 44 40 40 34 34 36 37 37
20 28 31 36 40 43 69 76 75 78 60 59 70 69 61 52 46 51 47 48 47 45 47 47 48 48 44 42 41 41 43 43 45 46 47 46 42 44 45 43 31 36 37 37 38
24 23 23 29 35 43 62 73 77 84 70 48 70 73 69 60 56 45 44 40 42 43 42 42 50 47 40 39 41 44 46 47 48 46 43 41 41 44 47 44 31 33 33 35 36
28 26 26 32 30 34 48 66 79 87 87 64 51 63 66 61 55 45 44 44 43 36 34 39 48 44 48 44 46 47 46 45 41 40 40 46 42 40 38 41 36 34 35 37 37
27 26 27 34 31 26 35 57 77 84 84 76 66 53 64 59 59 50 49 44 42 40 35 38 43 43 40 39 38 39 39 36 36 39 37 38 39 35 39 35 32 37 35 35 35
27 26 27 33 30 30 30 38 69 87 87 68 65 59 55 50 53 51 44 48 42 42 38 41 41 42 41 42 41 34 33 35 38 36 40 30 33 33 37 34 35 36 35 34 34
32 30 26 32 37 38 40 42 61 84 94 74 68 54 55 54 44 45 46 44 43 47 45 42 42 39 36 36 40 33 31 36 41 39 35 35 32 32 32 38 38 35 32 32 35
28 34 35 31 35 41 31 26 50 79 96 90 62 64 65 65 54 45 46 46 45 44 42 37 37 36 34 33 35 36 38 41 32 31 32 32 28 32 35 37 35 35 35 32 33
Wind_Direction
258 257 260 253 248 248 245 243 242 244 244 243 243 242 238 237 237 235 232 230 230 231 227 228 230 232 234 231 222 219 220 219 213 205 196 195 196 193 193 195 200 208 213 229 246
251 253 256 258 253 247 246 246 245 243 243 243 245 243 241 238 237 236 233 231 230 230 230 227 227 229 234 233 229 226 226 226 223 219 217 213 211 217 220 224 228 236 243 254 257
252 251 252 254 255 251 247 245 245 244 243 242 243 243 242 240 237 235 235 232 231 230 231 230 229 225 229 234 232 229 229 232 231 226 224 224 224 227 231 239 242 251 255 258 266
257 252 250 250 251 253 248 246 244 244 244 243 241 240 240 239 239 236 236 235 232 230 230 231 231 229 226 233 233 233 232 231 234 234 232 229 228 230 237 244 245 249 252 259 267
259 253 249 249 247 249 250 247 243 244 244 243 242 241 236 238 240 236 236 235 235 232 230 230 231 233 229 229 233 232 232 231 233 238 239 238 238 236 242 244 245 251 257 258 261
260 257 248 246 245 245 247 248 244 242 243 242 240 241 236 235 238 239 237 236 233 233 231 229 231 232 233 231 231 234 234 234 235 235 239 242 244 241 246 247 251 253 256 261 264
263 255 250 245 243 241 243 245 245 242 241 242 240 238 236 233 234 239 236 237 235 232 232 230 231 231 233 235 234 234 237 236 237 239 239 240 243 244 250 248 249 251 255 259 262
264 254 248 244 242 241 239 241 242 241 243 239 238 238 237 232 234 236 237 235 236 235 232 232 230 233 232 235 237 238 237 239 240 240 242 242 241 246 249 251 252 255 257 260 263
260 253 245 242 239 238 239 238 238 240 235 238 238 239 235 230 234 235 236 237 236 235 236 233 232 231 232 234 236 238 240 241 244 243 244 243 242 247 249 252 255 257 259 262 264
257 250 242 235 237 237 237 236 236 236 236 234 235 236 233 228 231 234 233 235 235 236 236 236 236 236 234 234 238 240 242 244 243 244 248 247 247 249 250 253 256 258 261 264 267
260 247 237 233 234 233 232 231 233 227 235 228 235 235 236 230 228 233 234 234 234 235 236 236 236 240 242 240 238 240 238 241 244 249 247 250 248 250 254 252 254 260 263 266 269
258 251 244 233 232 230 227 226 229 229 232 234 237 233 233 228 226 229 231 231 232 235 236 236 237 238 238 237 238 241 241 242 246 251 250 250 251 251 254 257 258 258 262 266 269
255 246 240 233 231 229 224 225 223 229 226 229 224 232 228 227 222 226 230 230 231 232 233 238 238 236 235 237 238 241 244 244 246 250 253 253 253 252 252 260 265 264 262 265 265
260 243 236 231 227 226 224 222 219 219 230 225 223 211 213 222 221 225 229 230 231 230 233 235 234 234 235 236 237 239 242 245 247 248 252 256 257 256 258 257 260 262 266 266 268
265 243 233 228 225 223 220 217 211 212 226 228 224 226 228 232 226 224 225 227 230 230 234 236 237 240 242 242 242 242 243 246 249 253 255 256 263 262 259 260 262 266 266 267 267
267 246 234 228 221 220 216 215 210 211 231 226 226 227 222 216 222 219 222 227 227 228 231 232 230 235 233 237 239 240 243 247 250 254 255 257 262 265 268 267 263 262 263 267 270
268 250 236 227 219 216 215 212 210 211 218 224 221 224 216 227 221 222 222 225 224 226 228 232 237 236 238 239 239 243 243 250 254 253 260 263 261 261 269 270 266 265 265 265 269
267 253 238 229 218 214 212 209 206 211 212 221 225 225 227 223 222 224 221 224 227 231 236 236 239 238 238 242 248 248 248 250 255 258 264 259 258 265 266 271 267 268 270 271 266
265 253 238 234 221 214 211 209 208 210 217 224 220 220 218 227 222 225 227 234 233 231 232 238 238 239 239 239 243 243 245 251 253 253 257 261 267 268 268 273 274 276 271 269 269
255 248 237 233 224 215 214 209 208 204 213 216 220 223 224 228 223 223 225 224 225 224 227 236 240 238 238 237 238 243 240 242 247 253 257 263 266 272 278 273 267 268 270 272 272
248 241 229 234 225 219 216 210 207 202 207 215 216 218 219 227 224 220 223 224 222 226 225 228 234 242 237 235 237 239 245 243 248 251 257 261 270 274 268 271 280 276 274 272 272
242 234 228 227 222 222 217 209 207 203 205 211 215 219 222 224 227 224 219 224 227 230 227 230 236 237 240 236 234 233 239 243 243 248 259 263 258 269 274 280 283 277 274 272 270
251 231 243 218 220 231 223 212 206 204 208 203 210 221 221 225 229 228 217 222 222 224 225 222 228 229 238 228 228 233 237 245 253 252 252 259 261 266 268 278 281 275 272 269 270
249 238 247 225 216 223 230 216 209 204 205 207 211 215 216 222 224 225 214 215 219 222 221 219 223 229 236 249 244 238 245 248 250 249 250 254 262 268 277 275 275 275 270 269 268
250 245 231 222 216 223 200 226 211 206 203 198 206 208 210 214 219 218 213 213 212 210 215 215 220 224 225 234 237 239 239 240 242 251 253 261 263 269 268 276 271 269 277 273 269
243 248 241 222 219 217 223 218 213 208 203 199 198 200 205 207 213 220 212 215 220 214 212 217 223 229 231 233 243 240 238 241 242 248 261 264 264 269 271 264 268 274 273 269 265
242 247 247 227 227 220 209 214 217 209 206 202 196 206 214 209 221 220 222 217 218 221 220 227 229 229 235 237 244 238 236 241 252 254 255 258 259 255 263 266 266 265 267 263 259